カタログに戻る

STARLINK-35698

運用中通信VLEO
NORAD 66481·PAYLOAD·🇺🇸 United States

打ち上げ Nov 15, 2025 から Cape Canaveral Space Force Station

Loading…

次のパス (今後24時間)

TLE

最新Source: CelesTrak SupGP

元期: Sep 14, 2026, 21:16 UTC

1 66481C 25262AB  26257.88659722 -.00015960  00000+0 -57796-3 0  2577
2 66481  43.0027 307.3231 0001895 272.7532 163.4217 15.27591951    13

AllMySatでSTARLINK-35698をリアルタイム追跡

Download on the App Store